Flag for Finland Weather past 2 weeks in Vaasa, Finland

Now
37 °F

Partly sunny.


Feels Like: 27 °F
Forecast: 36 / 41 °F
Wind: 18 mph from Southeast

Location: Vaasa Airport

Current Time: Mar 29, 2015 at 5:24:44 PM

Latest Report: Mar 29, 2015 at 4:50 PM


Visibility: N/A

Pressure: 29.42 "Hg

Humidity: 75%

Dew point: 30 °F

Location of VaasaLocation

Historic Weather in Vaasa — Graph

°F

Vaasa temperature yesterday

Maximum temperature yesterday: 37 °F (at 12:20 AM)
Minimum temperature yesterday: 32 °F (at 8:50 AM)
Average temperature yesterday: 34 °F

Past Weeks' High & Low Weather Summary

 TemperatureHumidityPressure
High52 °F (Mar 16, 2:20 PM)100% (Mar 14, 11:20 PM)30.98 "Hg (Mar 14, 11:20 PM)
Low16 °F (Mar 21, 11:50 PM)24% (Mar 15, 2:50 PM)29.09 "Hg (Mar 24, 12:20 AM)
Average33 °F73%30.18 "Hg
* Reported Mar 14 3:20 PM — Mar 29 4:20 PM, Vaasa, Weather by CustomWeather, © 2015

Note: Actual official high and low records may vary slightly from our data, if they occured in-between our weather recording intervals... More about our weather records

Advertising

Vaasa weather history for previous 24 hours

 ConditionsComfort  
Time TempWeatherWind HumidityBarometerVisibility
4:20 PM
Sun, Mar 29
39 °FOvercast.21 mph70%29.42 "HgN/A
3:20 PM39 °FOvercast.18 mph75%29.45 "HgN/A
2:50 PM39 °FOvercast.18 mph70%29.47 "HgN/A
2:20 PM39 °FMostly cloudy.18 mph75%29.47 "HgN/A
1:50 PM39 °FMostly cloudy.17 mph75%29.50 "HgN/A
1:20 PM39 °FOvercast.17 mph75%29.50 "HgN/A
12:50 PM39 °FMostly cloudy.17 mph75%29.50 "HgN/A
12:20 PM39 °FPartly sunny.14 mph75%29.53 "HgN/A
11:50 AM39 °FMostly cloudy.15 mph81%29.53 "HgN/A
11:20 AM37 °FOvercast.15 mph81%29.53 "HgN/A
10:50 AM37 °FPartly sunny.14 mph87%29.53 "HgN/A
10:20 AM37 °FPartly sunny.13 mph87%29.56 "HgN/A
9:50 AM36 °FLow clouds.12 mph87%29.56 "HgN/A
9:20 AM34 °FLow clouds.12 mph100%29.59 "HgN/A
8:50 AM34 °FLow clouds.12 mph93%29.59 "HgN/A
8:20 AM34 °FLow clouds.10 mph93%29.59 "HgN/A
7:50 AM32 °FLow clouds.8 mph100%29.59 "HgN/A
7:20 AM32 °FLow clouds.8 mph93%29.62 "HgN/A
6:20 AM32 °FPassing clouds.7 mph93%29.65 "HgN/A
5:50 AM32 °FPassing clouds.8 mph93%29.65 "HgN/A
5:20 AM32 °FPassing clouds.7 mph93%29.65 "HgN/A
4:50 AM32 °FOvercast.8 mph93%29.68 "HgN/A
4:20 AM32 °FOvercast.7 mph93%29.68 "HgN/A
2:50 AM32 °FOvercast.7 mph93%29.71 "HgN/A
2:20 AM32 °FOvercast.8 mph93%29.71 "HgN/A
1:50 AM32 °FOvercast.6 mph93%29.74 "HgN/A
1:20 AM32 °FOvercast.8 mph93%29.74 "HgN/A
12:50 AM32 °FOvercast.6 mph93%29.74 "HgN/A
12:20 AM32 °FOvercast.6 mph93%29.74 "HgN/A
11:50 PM
Sat, Mar 28
32 °FLow clouds.8 mph93%29.74 "HgN/A
11:20 PM32 °FLow clouds.7 mph93%29.77 "HgN/A
10:50 PM32 °FLow clouds.7 mph93%29.77 "HgN/A
10:20 PM32 °FLow clouds.7 mph93%29.77 "HgN/A
9:50 PM32 °FLow clouds.7 mph93%29.77 "HgN/A
9:20 PM32 °FLow clouds.7 mph93%29.77 "HgN/A
8:50 PM32 °FLow clouds.6 mph93%29.77 "HgN/A
8:20 PM32 °FLow clouds.5 mph93%29.80 "HgN/A
7:50 PM32 °FLow clouds.5 mph93%29.80 "HgN/A
7:20 PM32 °FLow clouds.8 mph93%29.77 "HgN/A
6:50 PM34 °FLow clouds.6 mph87%29.77 "HgN/A
6:20 PM34 °FLow clouds.8 mph93%29.80 "HgN/A
5:50 PM34 °FLow clouds.5 mph93%29.80 "HgN/A
5:20 PM34 °FLow clouds.6 mph93%29.80 "HgN/A
Weather by CustomWeather, © 2015

See weather overviewHow to use our weather pages